Wolf Creek Pass, CO

5:49 PM MDT on September 24, 2017 (GMT -0600)
Wolf Creek Pass

Weather History for KCPW - December, 2012

Change the Weather History Date:

Tuesday, December 4, 2012

  Actual Average (KALS) Record (KALS)
Temperature  
Mean Temperature 24 °F -  
Max Temperature 32 °F 41 °F 59 °F (1995)
Min Temperature 17 °F 4 °F -17 °F (1952)
Degree Days  
Heating Degree Days 40    
Moisture  
Dew Point 6 °F    
Average Humidity 43    
Maximum Humidity 100    
Minimum Humidity 24    
Precipitation  
Precipitation 0.00 in - - ()
Sea Level Pressure  
Sea Level Pressure 30.46 in    
Wind  
Wind Speed 8 mph (SW)    
Max Wind Speed 18 mph    
Max Gust Speed 21 mph    
Visibility 10 miles    
Events      
Averages and records for this station are not official NWS values.
T = Trace of Precipitation, MM = Missing Value Source: NWS Daily Summary

Daily Weather History Graph

Daily Weather History Graph

Search for Another Location

Airport or City:

Trip Planner

Search our weather history database for the weather conditions in past years. The results will help you decide how hot, cold, wet, or windy it might be!

Date:

Astronomy

Dec. 04, 2012 Rise Set
Actual Time 7:06 AM MST 4:49 PM MST
Civil Twilight 6:37 AM MST 5:17 PM MST
Nautical Twilight 6:04 AM MST 5:50 PM MST
Astronomical Twilight 5:33 AM MST 6:22 PM MST
Moon 10:34 PM MST (12/4) 11:06 AM MST (12/4)
Length of Visible Light 10h 40m
Length of Day
9h 42m
Waning Gibbous, 69% of the Moon is Illuminated
Dec 4
Waning Gibbous
Dec 6
Last Quarter
Dec 13
New
Dec 19
First Quarter
Dec 28
Full

Hourly Weather History & Observations

Time (MST) Temp. Windchill Dew Point Humidity Pressure Visibility Wind Dir Wind Speed Gust Speed Precip Events Conditions
12:02 AM 21.2 °F 11.7 °F 19.4 °F 93% 30.35 in 10.0 mi WSW 8.1 mph - N/A   Clear
12:22 AM 21.2 °F 11.7 °F 19.4 °F 93% 30.36 in 10.0 mi SW 8.1 mph - N/A   Clear
12:42 AM 19.4 °F 10.4 °F 19.4 °F 100% 30.36 in 10.0 mi West 6.9 mph - N/A   Clear
1:02 AM 17.6 °F 7.3 °F 14.0 °F 86% 30.36 in 10.0 mi WNW 8.1 mph - N/A   Clear
1:22 AM 19.4 °F 6.6 °F 8.6 °F 63% 30.35 in 10.0 mi North 12.7 mph - N/A   Clear
2:02 AM 19.4 °F 8.6 °F 1.4 °F 46% 30.36 in 10.0 mi WNW 9.2 mph - N/A   Clear
2:22 AM 21.2 °F 8.9 °F -4.0 °F 33% 30.35 in 10.0 mi North 12.7 mph 16.1 mph N/A   Clear
2:41 AM 21.2 °F 10.9 °F -4.0 °F 33% 30.36 in 10.0 mi NW 9.2 mph - N/A   Clear
3:02 AM 19.4 °F 12.8 °F 3.2 °F 49% 30.37 in 10.0 mi South 4.6 mph - N/A   Clear
3:22 AM 21.2 °F 12.6 °F 5.0 °F 50% 30.38 in 10.0 mi SSW 6.9 mph - N/A   Clear
3:42 AM 23.0 °F - -4.0 °F 31% 30.38 in 10.0 mi Calm Calm - N/A   Clear
4:02 AM 23.0 °F 15.8 °F -4.0 °F 31% 30.38 in 10.0 mi East 5.8 mph - N/A   Clear
4:22 AM 23.0 °F 14.7 °F -4.0 °F 31% 30.38 in 10.0 mi NNE 6.9 mph - N/A   Clear
4:42 AM 23.0 °F 17.0 °F -4.0 °F 31% 30.39 in 10.0 mi West 4.6 mph - N/A   Clear
5:02 AM 23.0 °F - -4.0 °F 31% 30.39 in 10.0 mi Calm Calm - N/A   Clear
5:22 AM 23.0 °F 14.7 °F -4.0 °F 31% 30.40 in 10.0 mi NNE 6.9 mph - N/A   Clear
5:42 AM 23.0 °F - -5.8 °F 28% 30.41 in 10.0 mi Calm Calm - N/A   Clear
6:02 AM 23.0 °F 17.0 °F -5.8 °F 28% 30.41 in 10.0 mi ENE 4.6 mph - N/A   Clear
6:22 AM 23.0 °F 17.0 °F -4.0 °F 31% 30.42 in 10.0 mi NNW 4.6 mph - N/A   Clear
6:42 AM 24.8 °F 19.1 °F -4.0 °F 28% 30.43 in 10.0 mi North 4.6 mph - N/A   Clear
7:02 AM 26.6 °F - -5.8 °F 24% 30.44 in 10.0 mi Calm Calm - N/A   Clear
7:22 AM 24.8 °F 20.5 °F -4.0 °F 28% 30.44 in 10.0 mi WNW 3.5 mph - N/A   Clear
7:42 AM 26.6 °F 20.0 °F -4.0 °F 26% 30.45 in 10.0 mi North 5.8 mph - N/A   Clear
8:02 AM 28.4 °F 23.3 °F -4.0 °F 25% 30.46 in 10.0 mi NW 4.6 mph - N/A   Clear
8:22 AM 26.6 °F 21.2 °F -4.0 °F 26% 30.47 in 10.0 mi WSW 4.6 mph - N/A   Clear
8:42 AM 28.4 °F 22.2 °F -2.2 °F 27% 30.48 in 10.0 mi West 5.8 mph - N/A   Clear
9:02 AM 26.6 °F 21.2 °F -0.4 °F 31% 30.49 in 10.0 mi WSW 4.6 mph - N/A   Clear
9:22 AM 28.4 °F 21.2 °F -2.2 °F 27% 30.50 in 10.0 mi SW 6.9 mph - N/A   Clear
9:42 AM 28.4 °F 18.5 °F -2.2 °F 27% 30.51 in 10.0 mi SSW 11.5 mph - N/A   Clear
10:02 AM 28.4 °F 18.0 °F -0.4 °F 29% 30.52 in 10.0 mi SW 12.7 mph - N/A   Scattered Clouds
10:22 AM 26.6 °F 16.2 °F 5.0 °F 40% 30.52 in 10.0 mi SW 11.5 mph - N/A   Scattered Clouds
10:42 AM 28.4 °F 18.0 °F 5.0 °F 37% 30.52 in 10.0 mi SSW 12.7 mph - N/A   Mostly Cloudy
11:22 AM 28.4 °F 17.5 °F 5.0 °F 37% 30.51 in 10.0 mi SW 13.8 mph - N/A   Scattered Clouds
11:42 AM 30.2 °F 19.3 °F 3.2 °F 32% 30.50 in 10.0 mi SSW 15.0 mph - N/A   Scattered Clouds
12:02 PM 30.2 °F 19.3 °F 5.0 °F 34% 30.49 in 10.0 mi SW 15.0 mph - N/A   Clear
12:22 PM 30.2 °F 18.5 °F 10.4 °F 44% 30.49 in 10.0 mi SW 17.3 mph 20.7 mph N/A   Clear
12:42 PM 30.2 °F 18.1 °F 5.0 °F 34% 30.49 in 10.0 mi SSW 18.4 mph - N/A   Clear
1:02 PM 30.2 °F 19.3 °F 10.4 °F 44% 30.49 in 10.0 mi SW 15.0 mph - N/A   Scattered Clouds
1:22 PM 28.4 °F 17.0 °F 15.8 °F 59% 30.49 in 10.0 mi SW 15.0 mph - N/A   Mostly Cloudy
1:42 PM 28.4 °F 16.6 °F 14.0 °F 55% 30.48 in 10.0 mi SSW 16.1 mph - N/A   Scattered Clouds
2:02 PM 30.2 °F 20.2 °F 8.6 °F 40% 30.47 in 10.0 mi SSW 12.7 mph - N/A   Clear
2:22 PM 30.2 °F 20.2 °F 8.6 °F 40% 30.47 in 10.0 mi SSW 12.7 mph - N/A   Clear
2:42 PM 32.0 °F 23.0 °F 10.4 °F 41% 30.48 in 10.0 mi SW 11.5 mph - N/A   Clear
3:02 PM 32.0 °F 21.6 °F 12.2 °F 44% 30.48 in 10.0 mi SW 15.0 mph - N/A   Clear
3:22 PM 32.0 °F 22.1 °F 14.0 °F 48% 30.48 in 10.0 mi SW 13.8 mph - N/A   Clear
3:42 PM 30.2 °F 19.3 °F 14.0 °F 51% 30.49 in 10.0 mi SW 15.0 mph - N/A   Clear
4:02 PM 30.2 °F 20.2 °F 8.6 °F 40% 30.49 in 10.0 mi SW 12.7 mph - N/A   Clear
4:10 PM 30.2 °F 20.8 °F 8.6 °F 40% 30.50 in 10.0 mi SSW 11.5 mph - N/A   Clear
4:45 PM 28.4 °F 19.1 °F 5.0 °F 37% 30.49 in 10.0 mi SSW 10.4 mph - N/A   Clear
5:19 PM 26.6 °F 16.2 °F 6.8 °F 43% 30.49 in 10.0 mi SSW 11.5 mph - N/A   Clear
5:42 PM 26.6 °F 16.8 °F 6.8 °F 43% 30.50 in 10.0 mi SSW 10.4 mph - N/A   Clear
6:02 PM 26.6 °F 17.5 °F 5.0 °F 40% 30.50 in 10.0 mi SSW 9.2 mph - N/A   Clear
6:22 PM 26.6 °F 18.2 °F 5.0 °F 40% 30.51 in 10.0 mi SW 8.1 mph - N/A   Clear
6:42 PM 28.4 °F 22.2 °F 12.2 °F 51% 30.52 in 10.0 mi WSW 5.8 mph - N/A   Clear
7:02 PM 30.2 °F 24.3 °F 12.2 °F 47% 30.50 in 10.0 mi SW 5.8 mph - N/A   Clear
7:22 PM 30.2 °F 21.9 °F 12.2 °F 47% 30.50 in 10.0 mi WSW 9.2 mph - N/A   Clear
7:42 PM 30.2 °F 24.3 °F 14.0 °F 51% 30.49 in 10.0 mi NW 5.8 mph - N/A   Clear
8:02 PM 30.2 °F 24.3 °F 14.0 °F 51% 30.50 in 10.0 mi SW 5.8 mph - N/A   Clear
8:22 PM 30.2 °F 25.4 °F 14.0 °F 51% 30.51 in 10.0 mi SW 4.6 mph - N/A   Clear
8:42 PM 30.2 °F 24.3 °F 12.2 °F 47% 30.51 in 10.0 mi SSW 5.8 mph - N/A   Clear
9:02 PM 30.2 °F 21.3 °F 12.2 °F 47% 30.52 in 10.0 mi SW 10.4 mph - N/A   Clear
9:22 PM 30.2 °F 20.8 °F 12.2 °F 47% 30.52 in 10.0 mi SSW 11.5 mph - N/A   Clear
9:42 PM 30.2 °F 20.8 °F 12.2 °F 47% 30.52 in 10.0 mi WSW 11.5 mph - N/A   Clear
10:02 PM 30.2 °F 22.6 °F 14.0 °F 51% 30.52 in 10.0 mi SSW 8.1 mph - N/A   Clear
10:22 PM 28.4 °F 18.5 °F 14.0 °F 55% 30.52 in 10.0 mi SW 11.5 mph - N/A   Clear
10:42 PM 26.6 °F 16.8 °F 12.2 °F 55% 30.52 in 10.0 mi SSW 10.4 mph - N/A   Clear
11:02 PM 26.6 °F 17.5 °F 12.2 °F 55% 30.52 in 10.0 mi SSW 9.2 mph - N/A   Clear
11:22 PM 30.2 °F 21.3 °F 14.0 °F 51% 30.52 in 10.0 mi SW 10.4 mph - N/A   Clear
11:42 PM 30.2 °F 21.9 °F 17.6 °F 60% 30.51 in 10.0 mi WSW 9.2 mph - N/A   Clear